History for Miami, FL

Sunday, November 11, 2012 — View Current Conditions

Jump to Data:

Date:
Airport Code:
Recently Viewed Airport Codes: KMIA
Daily Summary
  Actual Average Record
Temperature
Mean Temperature 77°F 76°F  
Max Temperature 82°F 82°F 89°F (2002)
Min Temperature 71°F 69°F 48°F (1913)
Degree Days
Heating Degree Days 0 0  
Month to date heating degree days 1 0  
Since 1 July heating degree days 1 0  
Cooling Degree Days 12 11  
Month to date cooling degree days 73 126  
Year to date cooling degree days 4312 4198  
Growing Degree Days 26 (Base 50)    
Moisture
Dew Point 58°F    
Average Humidity 53    
Maximum Humidity 61    
Minimum Humidity 45    
Precipitation
Precipitation 0.02 in 0.12 in 2.27 in (1967)
Month to date precipitation 0.02 1.44  
Year to date precipitation 85.95 58.03  
Snow
Snow 0.00 in in in ()
Month to date snowfall 0.0  
Since 1 July snowfall 0.0  
Since 1 September snowfall 0.0  
Snow Depth 0.00 in    
Sea Level Pressure
Sea Level Pressure 30.20 in    
Wind
Wind Speed 13 mph (East)    
Max Wind Speed 24 mph    
Max Gust Speed 30 mph    
Visibility 10 miles    
Events Rain    
T = Trace of Precipitation, MM = Missing Value Source: NWS Daily Summary

Show full METARS

(help) - Comma Delimited File

Hourly Observations

Time(EST) Temperature Dew Point Humidity Sea Level Pressure Visibility Wind Direction Wind Speed Gust Speed Precipitation Events Conditions
12:53 AM 73.9°F 55.0°F 52% 30.20 in 10.0 miles ENE 8.1 mph - N/A   Mostly Cloudy
1:53 AM 73.9°F 59.0°F 59% 30.18 in 10.0 miles East 11.5 mph - N/A   Mostly Cloudy
2:53 AM 73.0°F 55.9°F 55% 30.17 in 10.0 miles East 13.8 mph - N/A   Mostly Cloudy
3:53 AM 71.1°F 55.0°F 57% 30.17 in 10.0 miles East 8.1 mph - N/A   Scattered Clouds
4:53 AM 73.9°F 55.9°F 53% 30.18 in 10.0 miles East 9.2 mph 16.1 mph N/A   Mostly Cloudy
5:53 AM 73.9°F 57.0°F 55% 30.19 in 10.0 miles East 9.2 mph - N/A   Mostly Cloudy
6:53 AM 73.9°F 59.0°F 59% 30.20 in 10.0 miles East 8.1 mph - N/A   Scattered Clouds
7:53 AM 75.0°F 57.0°F 53% 30.22 in 10.0 miles East 12.7 mph 19.6 mph N/A   Scattered Clouds
8:53 AM 79.0°F 57.0°F 47% 30.23 in 10.0 miles East 19.6 mph 26.5 mph N/A   Scattered Clouds
9:53 AM 79.0°F 55.9°F 45% 30.24 in 10.0 miles East 17.3 mph 24.2 mph N/A   Scattered Clouds
10:53 AM 81.0°F 57.9°F 45% 30.23 in 10.0 miles East 18.4 mph 26.5 mph N/A   Scattered Clouds
11:53 AM 79.0°F 60.1°F 52% 30.22 in 10.0 miles East 18.4 mph 27.6 mph N/A   Mostly Cloudy
12:53 PM 80.1°F 57.9°F 47% 30.20 in 10.0 miles East 17.3 mph 26.5 mph N/A   Mostly Cloudy
1:53 PM 81.0°F 57.9°F 45% 30.19 in 10.0 miles ENE 17.3 mph 23.0 mph N/A   Mostly Cloudy
2:53 PM 80.1°F 57.9°F 47% 30.18 in 10.0 miles East 20.7 mph 25.3 mph N/A   Scattered Clouds
3:53 PM 78.1°F 59.0°F 52% 30.18 in 10.0 miles ENE 13.8 mph 21.9 mph 0.00 in   Scattered Clouds
4:53 PM 78.1°F 57.9°F 50% 30.18 in 10.0 miles ENE 9.2 mph 23.0 mph N/A   Scattered Clouds
5:53 PM 77.0°F 57.0°F 50% 30.19 in 10.0 miles ENE 10.4 mph 19.6 mph N/A   Scattered Clouds
6:53 PM 75.9°F 59.0°F 56% 30.19 in 10.0 miles ENE 11.5 mph - N/A   Scattered Clouds
7:53 PM 75.2°F 60.8°F 61% 30.21 in 10.0 miles ENE 12.7 mph 21.9 mph N/A   Scattered Clouds
8:53 PM 75.9°F 60.1°F 58% 30.20 in 10.0 miles East 11.5 mph - N/A   Scattered Clouds
9:53 PM 73.9°F 64.9°F 73% 30.21 in 10.0 miles East 4.6 mph - 0.00 in Rain Light Rain
10:53 PM 73.0°F 64.9°F 76% 30.21 in 10.0 miles East 16.1 mph - 0.02 in   Scattered Clouds
11:53 PM 75.0°F 64.0°F 69% 30.19 in 10.0 miles East 13.8 mph - N/A   Scattered Clouds